Location: DARK SKY Beskydy - Park tmavé oblohy, www.darkskybeskydy.cz
(49.4926°N, 18.5016°E)
Time: 14:06:06
(UTC+02:00)

Tiros 1 despin weight - Visible Passes

Search period start: 24 July 2024 00:00
Search period end: 03 August 2024 00:00
Orbit: 576 x 620 km, 48.2° (Epoch: 23 July)

Date Brightness Start Highest point End Pass type
(mag) Time Alt. Az. Time Alt. Az. Time Alt. Az.
24 Jul ? 01:57:28 49° SSW 01:58:05 54° SSE 02:02:21 10° E visible
24 Jul ? 03:34:40 10° W 03:39:02 76° S 03:43:27 10° E visible
25 Jul ? 00:29:58 16° E 00:29:58 16° E 00:31:02 10° E visible
25 Jul ? 02:06:34 40° SW 02:07:58 66° SSE 02:12:19 10° E visible
25 Jul ? 03:44:36 10° W 03:48:58 71° S 03:53:22 10° ESE visible
26 Jul ? 00:39:03 24° ESE 00:39:03 24° ESE 00:41:06 10° E visible
26 Jul ? 02:15:40 28° WSW 02:17:52 74° S 02:22:15 10° E visible
26 Jul ? 03:54:32 10° W 03:58:51 61° SSW 04:03:12 10° ESE visible
27 Jul ? 00:48:08 37° ESE 00:48:08 37° ESE 00:51:04 10° E visible
27 Jul ? 02:24:44 19° W 02:27:46 76° S 02:32:09 10° E visible
27 Jul ? 04:04:28 10° W 04:08:41 48° SSW 04:12:56 10° SE visible
28 Jul ? 00:57:12 58° SE 00:57:12 58° SE 01:01:00 10° E visible
28 Jul ? 02:33:49 13° W 02:37:39 72° S 02:42:02 10° ESE visible
28 Jul ? 04:14:27 10° W 04:18:27 35° SSW 04:22:29 10° SE visible
28 Jul ? 23:29:42 10° E 23:29:42 10° E 23:29:45 10° E visible
29 Jul ? 01:06:19 71° SSW 01:06:32 74° S 01:10:53 10° E visible
29 Jul ? 02:43:14 10° W 02:47:31 62° SSW 02:51:51 10° ESE visible
29 Jul ? 04:24:33 10° W 04:28:09 25° SSW 04:31:46 10° SSE visible
29 Jul ? 21:52:04 10° S 21:55:01 18° SE 21:56:21 16° ESE visible
29 Jul ? 23:31:17 10° WSW 23:39:01 14° E 23:39:41 10° E visible
30 Jul ? 01:15:41 59° WSW 01:16:24 76° S 01:20:46 10° E visible
30 Jul ? 02:53:07 10° W 02:57:19 49° SSW 03:01:33 10° SE visible
30 Jul ? 04:34:55 10° W 04:37:45 17° SW 04:40:35 10° S visible
30 Jul ? 22:01:00 10° SSW 22:04:37 27° SSE 22:08:16 10° E visible
30 Jul ? 23:41:00 10° WSW 23:45:16 64° SSE 23:46:14 48° ESE visible
31 Jul ? 01:21:56 10° W 01:27:07 54° SE 01:30:36 10° ESE visible
31 Jul ? 03:04:03 16° W 03:07:03 36° SSW 03:11:04 10° SE visible
31 Jul ? 22:10:18 10° SW 22:14:17 38° SSE 22:18:17 10° E visible
31 Jul ? 23:50:48 10° WSW 23:55:05 73° S 23:55:56 55° ESE visible
01 Aug ? 01:31:48 10° W 01:41:26 - ESE 01:32:33 15° W visible
01 Aug ? 03:18:25 20° S 03:18:25 20° S 03:20:20 10° SSE visible
01 Aug ? 22:19:50 10° SW 22:24:00 50° SSE 22:28:12 10° E visible
02 Aug ? 00:00:37 10° W 00:04:55 76° S 00:05:02 75° SSE visible
02 Aug ? 22:29:30 10° WSW 22:33:46 63° SSE 22:37:26 14° E visible
